Date String (YYYY-MM-DD hh:mm:ss) UTC,Instrument flags,absolute air pressure of the measurement (hPa),sample flow rate (lpm),inlet stack bypass flow (lpm),air temperature of the measurement (°C),ambient temperature measured by the external sensor (°C),aerosol sample conditioner tube jacket temperature (°C),OPC LED temperature (°C),internal box temperature (°C),relative humidity of the measurement (%),span deviation,mass concentration of particles derived from Lorenz-Mie calculation of OPC scattering (μg/m³),mass concentration of particles derived from Lorenz-Mie calculation of OPC scattering (μg/m³),mass concentration of particles derived from Lorenz-Mie calculation of OPC scattering (μg/m³)
DateTimeUTC,F1_M11,P_M11,Q1_M11,Q2_M11,T1_M11,T2_M11,T3_M11,T4_M11,T5_M11,U1_M11,ZSPAN_M11,X2_M11,X0_M11,X1_M11
2024-06-10 03:00:00,SystemResetWarning,0830.9,5.00,000.00,029.9,029.4,000.0,038.1,031.8,039.1,-000.2,0008.23,0014.94,0007.34
2024-06-10 03:01:00,SystemResetWarning,0830.9,5.00,000.00,030.0,029.5,000.0,038.1,031.9,038.8,-000.3,0008.25,0014.84,0007.39
2024-06-10 03:02:00,SystemResetWarning,0830.9,5.01,000.00,030.0,029.5,000.0,038.2,031.9,038.7,-000.4,0008.27,0014.39,0007.41
2024-06-10 03:03:00,SystemResetWarning,0830.9,5.00,000.00,030.1,029.6,000.0,038.2,031.9,038.7,-000.6,0008.35,0013.91,0007.47
2024-06-10 03:04:00,SystemResetWarning,0830.9,5.00,000.00,030.1,029.6,000.0,038.2,032.0,038.5,-000.9,0008.41,0014.25,0007.52
2024-06-10 03:05:00,SystemResetWarning,0830.9,4.99,000.00,030.2,029.7,000.0,038.3,032.0,038.4,-001.6,0008.42,0015.09,0007.51
2024-06-10 03:06:00,SystemResetWarning,0830.9,5.00,000.00,030.2,029.7,000.0,038.3,032.0,038.4,-001.0,0008.40,0015.24,0007.49
2024-06-10 03:07:00,SystemResetWarning,0831.0,5.01,000.00,030.2,029.8,000.0,038.3,032.0,038.3,-000.6,0008.37,0015.82,0007.45
2024-06-10 03:08:00,SystemResetWarning,0830.9,5.01,000.00,030.3,029.8,000.0,038.3,032.1,038.1,-000.7,0008.39,0015.89,0007.42
2024-06-10 03:09:00,SystemResetWarning,0830.9,4.99,000.00,030.3,029.8,000.0,038.4,032.1,038.0,-000.4,0008.39,0015.89,0007.39
2024-06-10 03:10:00,SystemResetWarning,0830.9,4.99,000.00,030.4,029.9,000.0,038.4,032.2,037.9,-000.2,0008.40,0016.05,0007.36
2024-06-10 03:11:00,SystemResetWarning,0831.0,5.00,000.00,030.4,029.9,000.0,038.5,032.2,037.8,-000.2,0008.41,0016.82,0007.34
2024-06-10 03:12:00,SystemResetWarning,0831.1,5.01,000.00,030.4,029.9,000.0,038.5,032.2,037.7,-000.2,0008.40,0016.90,0007.30
2024-06-10 03:13:00,SystemResetWarning,0831.0,5.00,000.00,030.4,029.1,000.0,038.6,031.7,037.7,-000.1,0008.36,0016.55,0007.28
2024-06-10 03:14:00,SystemResetWarning,0830.9,4.99,000.00,030.0,027.0,000.0,038.6,030.7,038.5,0000.0,0008.33,0016.56,0007.25
2024-06-10 03:15:00,SystemResetWarning,0830.9,5.02,000.00,029.7,026.5,000.0,038.6,030.4,039.4,0000.0,0008.32,0017.24,0007.22
2024-06-10 03:16:00,SystemResetWarning,0830.9,5.00,000.00,029.5,026.8,000.0,038.4,030.5,039.8,0000.0,0008.26,0016.51,0007.19
2024-06-10 03:17:00,SystemResetWarning,0831.0,4.99,000.00,029.5,027.2,000.0,038.3,030.7,039.8,0000.0,0008.28,0016.44,0007.17
2024-06-10 03:18:00,SystemResetWarning,0831.0,5.00,000.00,029.5,027.6,000.0,038.2,030.9,039.7,0000.0,0008.25,0016.33,0007.14
2024-06-10 03:19:00,SystemResetWarning,0831.1,5.01,000.00,029.5,027.9,000.0,038.2,031.1,039.7,0000.0,0008.17,0016.65,0007.10
2024-06-10 03:20:00,SystemResetWarning,0831.2,5.00,000.00,029.6,028.2,000.0,038.1,031.2,039.6,0000.0,0008.13,0016.75,0007.05
2024-06-10 03:21:00,SystemResetWarning,0831.2,5.00,000.00,029.6,028.4,000.0,038.1,031.3,039.5,0000.0,0008.10,0016.86,0007.01
2024-06-10 03:22:00,SystemResetWarning,0831.2,5.00,000.00,029.7,028.6,000.0,038.1,031.4,039.3,0000.0,0008.06,0016.30,0006.97
2024-06-10 03:23:00,SystemResetWarning,0831.1,4.99,000.00,029.7,028.8,000.0,038.1,031.5,039.0,0000.0,0008.03,0015.77,0006.94
2024-06-10 03:24:00,SystemResetWarning,0831.1,4.99,000.00,029.8,029.0,000.0,038.1,031.5,039.0,0000.0,0008.00,0016.08,0006.87
2024-06-10 03:25:00,SystemResetWarning,0831.1,5.00,000.00,029.8,029.1,000.0,038.1,031.6,038.9,0000.0,0007.91,0016.10,0006.78
2024-06-10 03:26:00,SystemResetWarning,0831.1,5.01,000.00,029.9,029.2,000.0,038.1,031.6,038.8,0000.0,0007.82,0015.29,0006.68
2024-06-10 03:27:00,SystemResetWarning,0831.2,5.01,000.00,029.9,029.3,000.0,038.1,031.7,038.8,0000.0,0007.77,0016.06,0006.59
2024-06-10 03:28:00,SystemResetWarning,0831.1,5.00,000.00,029.9,029.3,000.0,038.1,031.7,038.7,0000.0,0007.65,0016.32,0006.49
2024-06-10 03:29:00,SystemResetWarning,0831.1,4.99,000.00,030.0,029.4,000.0,038.2,031.8,038.6,0000.0,0007.53,0015.86,0006.41
2024-06-10 03:30:00,SystemResetWarning,0831.2,5.00,000.00,030.0,029.5,000.0,038.2,031.8,038.4,0000.0,0007.45,0015.62,0006.33
2024-06-10 03:31:00,SystemResetWarning,0831.2,5.00,000.00,030.1,029.5,000.0,038.2,031.9,038.4,0000.0,0007.37,0015.42,0006.26
2024-06-10 03:32:00,SystemResetWarning,0831.2,5.00,000.00,030.1,029.6,000.0,038.3,031.9,038.3,0000.0,0007.28,0015.93,0006.19
2024-06-10 03:33:00,SystemResetWarning,0831.3,5.00,000.00,030.2,029.7,000.0,038.3,032.0,038.2,0000.0,0007.13,0015.86,0006.12
2024-06-10 03:34:00,SystemResetWarning,0831.3,5.01,000.00,030.2,029.7,000.0,038.3,032.0,038.2,0000.0,0007.05,0016.68,0006.07
2024-06-10 03:35:00,SystemResetWarning,0831.3,5.00,000.00,030.2,029.7,000.0,038.4,032.0,038.1,0000.0,0007.01,0017.22,0006.06
2024-06-10 03:36:00,SystemResetWarning,0831.3,5.00,000.00,030.3,029.8,000.0,038.4,032.1,038.0,0000.0,0006.99,0017.36,0006.07
2024-06-10 03:37:00,SystemResetWarning,0831.3,4.99,000.00,030.3,029.8,000.0,038.4,032.1,037.9,0000.0,0006.97,0017.78,0006.08
2024-06-10 03:38:00,SystemResetWarning,0831.3,5.00,000.00,030.4,029.9,000.0,038.5,032.1,037.7,0000.0,0006.93,0017.78,0006.08
2024-06-10 03:39:00,SystemResetWarning,0831.3,5.00,000.00,030.4,029.9,000.0,038.5,032.2,037.6,0000.0,0006.91,0017.71,0006.06
2024-06-10 03:40:00,SystemResetWarning,0831.3,5.00,000.00,030.4,029.9,000.0,038.5,032.2,037.6,0000.0,0006.90,0017.68,0006.05
2024-06-10 03:41:00,SystemResetWarning,0831.3,5.00,000.00,030.5,030.0,000.0,038.6,032.2,037.4,0000.0,0006.93,0017.57,0006.03
2024-06-10 03:42:00,SystemResetWarning,0831.3,4.99,000.00,030.5,030.0,000.0,038.6,032.3,037.2,0000.0,0006.90,0017.64,0005.99
2024-06-10 03:43:00,SystemResetWarning,0831.3,5.00,000.00,030.4,028.8,000.0,038.7,031.6,037.2,0000.0,0006.84,0017.05,0005.93
2024-06-10 03:44:00,SystemResetWarning,0831.2,5.01,000.00,030.0,026.9,000.0,038.7,030.7,037.9,0000.0,0006.79,0016.48,0005.88
2024-06-10 03:45:00,SystemResetWarning,0831.2,5.01,000.00,029.7,026.6,000.0,038.7,030.4,038.6,0000.0,0006.76,0015.36,0005.83
2024-06-10 03:46:00,SystemResetWarning,0831.2,5.00,000.00,029.5,026.8,000.0,038.5,030.5,039.1,0000.0,0006.72,0016.04,0005.78
2024-06-10 03:47:00,SystemResetWarning,0831.3,5.00,000.00,029.5,027.3,000.0,038.4,030.8,039.1,0000.0,0006.66,0015.17,0005.72
2024-06-10 03:48:00,SystemResetWarning,0831.3,4.99,000.00,029.6,027.6,000.0,038.3,031.0,039.1,0000.0,0006.64,0017.30,0005.65
2024-06-10 03:49:00,SystemResetWarning,0831.3,5.00,000.00,029.6,028.0,000.0,038.2,031.1,039.0,0000.0,0006.67,0016.85,0005.60
2024-06-10 03:50:00,SystemResetWarning,0831.3,5.00,000.00,029.6,028.3,000.0,038.2,031.3,038.9,0000.0,0006.63,0016.38,0005.57
2024-06-10 03:51:00,SystemResetWarning,0831.4,5.00,000.00,029.7,028.5,000.0,038.2,031.4,038.9,0000.0,0006.58,0016.00,0005.53
2024-06-10 03:52:00,SystemResetWarning,0831.5,5.00,000.00,029.7,028.7,000.0,038.2,031.4,038.7,0000.0,0006.54,0016.00,0005.50
2024-06-10 03:53:00,SystemResetWarning,0831.5,4.99,000.00,029.7,028.8,000.0,038.2,031.5,038.5,0000.0,0006.53,0015.99,0005.48
2024-06-10 03:54:00,SystemResetWarning,0831.5,5.00,000.00,029.8,029.0,000.0,038.2,031.6,038.3,0000.0,0006.51,0015.96,0005.47
2024-06-10 03:55:00,SystemResetWarning,0831.5,5.00,000.00,029.8,029.1,000.0,038.2,031.6,038.0,0000.0,0006.48,0015.74,0005.45
2024-06-10 03:56:00,SystemResetWarning,0831.5,5.00,000.00,029.9,029.2,000.0,038.2,031.7,037.9,0000.0,0006.48,0016.04,0005.43
2024-06-10 03:57:00,SystemResetWarning,0831.5,5.00,000.00,029.9,029.3,000.0,038.2,031.7,037.8,0000.0,0006.50,0015.20,0005.39
2024-06-10 03:58:00,SystemResetWarning,0831.6,5.01,000.00,030.0,029.4,000.0,038.2,031.8,037.7,0000.0,0006.47,0015.28,0005.36
2024-06-10 03:59:00,SystemResetWarning,0831.6,5.00,000.00,030.0,029.4,000.0,038.2,031.8,037.6,0000.0,0006.39,0013.14,0005.32
